Showing default

COSMOS 2170, 21784

Orbit data source: Space-Track

COSMOS 2170, 21784 is a payload satellite owned by UNKS RF (CIS) in LEO that was launched on Tue, 12 Nov 1991 UTC via a TSIKLON-3 launch vehicle from the Plesetsk Missile And Space Complex (PKMTR). Payloads include a variety of satellites, spacecraft, and rockets equipped with specific instruments for various scientific and technological missions. These include communications satellites like Starlink; space stations such as the ISS; scientific satellites like the Hubble; Earth observation satellites from companies like Planet Labs, Umbra, and HawkEye 360; GPS; miniature CubeSats for education and research; and military/defense satellites.

Loading next visibility...
COSMOS 2170 details
Identifier
21784, 1991-077F
Orbit
LEO
Last TLE update12 hours ago
Origin
Flag of CISUNKS RF (CIS)
ManufacturerNPO PM
MissionDefense Communications
Bus & MotorSTRELA-3, Unknown motor
Mass225 kg wet, 225 kg dry
Launch date (UTC)
1991-11-12 (33 years ago)
Launch vehicle
TSIKLON-3
Launch site
Plesetsk Missile And Space Complex (PKMTR)
Object type
Payload
Rocket body
Debris
Shape & HBRCyl, 1.6 m
Radar Cross Section1.257 m², Medium (>0.1 m² and < 1m²)

Expand to show TLE details & history

TLE from 12 hours ago
0 COSMOS 2170
1 21784U 91077F   25025.30222402  .00000057  00000-0  25599-3 0  9990
2 21784  82.6054 231.9717 0002740  21.1119 151.6115 12.62569987529985
Epoch: 2025-01-25T07:15Z
Definitive object data (Epoch: 2025-01-25T07:15:12.155Z)
Latitude7.1335°
Longitude177.39201°
Altitude1,416.324 km
Speed7.152 km/s
True Right ascension03h 24m 10s
True Declination7° 05' 41"
Sunlit
Object was in daylight at TLE epoch
Visualization TLE readout
Latitude-42.67157°
Longitude-8.84178°
Altitude1,427.665 km
Speed7.147 km/s
Apparent Right ascension12h 12m 09s
Apparent Declination-51° 49' 35"
Sunlit
Object is in daylight
Visualization observer readout
Local Sidereal Time20:46:34
Azimuth233.644° WSW
Elevation-53.151°
Doppler factor1
Orbital elements
Apogee altitude1,411.808 km
Perigee altitude1,407.54 km
Semi-major axis7,787.811 km
Eccentricity0.000274
Inclination82.6054°
RAAN231.9717°
Arg. of periapsis21.1119°
True anomaly151.62642°
Mean anomaly151.6115°
Eccentric anomaly151.61896°
Mean motion3.15806 °/min
BSTAR0.00025599
Orbital period113.99 mins
Loading maneuver chart data...
Loading historical data...
Loading historical data...
Loading historical data...
Loading historical data...
Loading historical data...
Loading historical data...
Loading historical data...

COSMOS 2170 Visibility forecast

Observer location: undefined°, undefined

Span
Click to sort rows by Start time (UTC) header in descending order
Start Az.
Max El. time (UTC)
Max El. Az.
Max El.
End time (UTC)
End Az.
13 mins2025-01-26 00:03:38.622Z13.795° NNE2025-01-26 00:10:38.622Z71.293° E24.156°2025-01-26 00:16:38.622Z120.8° SE
14 mins2025-01-26 01:59:38.622Z343.028° N2025-01-26 02:05:38.622Z278.24° WNW41.666°2025-01-26 02:13:38.622Z190.433° SSW
11 mins2025-01-26 12:53:38.622Z128.665° SE2025-01-26 12:58:38.622Z86.783° E23.595°2025-01-26 13:04:38.622Z34.954° NE
14 mins2025-01-26 14:46:38.622Z203.334° SW2025-01-26 14:53:38.622Z290.558° WNW41.489°2025-01-26 15:00:38.622Z359.739° N
|